TimePDT,TemperatureF,Dew PointF,Humidity,Sea Level PressureIn,VisibilityMPH,Wind Direction,Wind SpeedMPH,Gust SpeedMPH,PrecipitationIn,Events,Conditions,WindDirDegrees,DateUTC
12:53 AM,66.0,55.9,70,29.90,10.0,West,3.5,-,N/A,,Clear,270,2013-08-12 07:53:00
1:53 AM,64.0,55.9,75,29.89,10.0,SW,3.5,-,N/A,,Clear,220,2013-08-12 08:53:00
2:53 AM,64.0,55.9,75,29.88,10.0,Calm,Calm,-,N/A,,Clear,0,2013-08-12 09:53:00
3:53 AM,62.1,55.9,80,29.88,10.0,Calm,Calm,-,N/A,,Clear,0,2013-08-12 10:53:00
4:53 AM,62.1,55.9,80,29.89,10.0,Calm,Calm,-,N/A,,Clear,0,2013-08-12 11:53:00
5:53 AM,60.1,55.9,86,29.91,9.0,Calm,Calm,-,N/A,,Clear,0,2013-08-12 12:53:00
6:53 AM,61.0,57.0,87,29.92,8.0,Calm,Calm,-,N/A,,Clear,0,2013-08-12 13:53:00
7:30 AM,60.8,55.4,82,29.97,2.5,Calm,Calm,-,N/A,,Scattered Clouds,0,2013-08-12 14:30:00
7:39 AM,60.8,57.2,88,29.97,1.0,WNW,3.5,-,N/A,,Mostly Cloudy,300,2013-08-12 14:39:00
7:53 AM,59.0,57.0,93,29.93,0.8,West,4.6,-,N/A,,Overcast,270,2013-08-12 14:53:00
8:08 AM,60.8,57.2,88,29.97,1.8,West,4.6,-,N/A,,Overcast,270,2013-08-12 15:08:00
8:11 AM,60.8,57.2,88,29.97,3.0,West,3.5,-,N/A,,Mostly Cloudy,270,2013-08-12 15:11:00
8:27 AM,60.8,57.2,88,29.97,5.0,Calm,Calm,-,N/A,,Scattered Clouds,0,2013-08-12 15:27:00
8:53 AM,64.0,57.0,78,29.94,6.0,WSW,3.5,-,N/A,,Haze,240,2013-08-12 15:53:00
9:53 AM,70.0,57.0,63,29.94,7.0,Calm,Calm,-,N/A,,Clear,0,2013-08-12 16:53:00
10:53 AM,75.0,55.9,51,29.93,7.0,Calm,Calm,-,N/A,,Clear,0,2013-08-12 17:53:00
11:53 AM,80.1,55.0,42,29.91,10.0,West,5.8,-,N/A,,Clear,260,2013-08-12 18:53:00
12:53 PM,84.0,52.0,33,29.89,10.0,Variable,3.5,-,N/A,,Clear,0,2013-08-12 19:53:00
1:53 PM,88.0,54.0,31,29.86,10.0,West,4.6,-,N/A,,Clear,280,2013-08-12 20:53:00
2:53 PM,91.0,51.1,25,29.85,10.0,WNW,6.9,-,N/A,,Clear,290,2013-08-12 21:53:00
3:53 PM,90.0,52.0,27,29.83,10.0,West,12.7,20.7,N/A,,Clear,270,2013-08-12 22:53:00
4:53 PM,88.0,55.0,32,29.83,10.0,West,11.5,21.9,N/A,,Clear,280,2013-08-12 23:53:00
5:53 PM,84.0,55.0,37,29.84,10.0,West,11.5,-,N/A,,Clear,260,2013-08-13 00:53:00
6:53 PM,81.0,54.0,39,29.85,10.0,West,9.2,-,N/A,,Clear,260,2013-08-13 01:53:00
7:53 PM,75.9,55.9,50,29.87,10.0,West,8.1,-,N/A,,Clear,270,2013-08-13 02:53:00
8:53 PM,73.0,57.9,59,29.89,10.0,West,6.9,-,N/A,,Clear,270,2013-08-13 03:53:00
9:53 PM,71.1,57.9,63,29.91,10.0,Calm,Calm,-,N/A,,Clear,0,2013-08-13 04:53:00
10:53 PM,70.0,57.9,65,29.91,10.0,Calm,Calm,-,N/A,,Clear,0,2013-08-13 05:53:00
11:53 PM,68.0,57.9,70,29.91,10.0,Calm,Calm,-,N/A,,Clear,0,2013-08-13 06:53:00